[[{"header":{"parameterUnit":"m.s-1","parameterCategory":2,"la1":30.2991,"la2":30.254,"lo1":-89.0895,"lo2":-89.0444,"dy":0.0017,"dx":0.0017,"nx":28,"ny":28,"refTime":"2026-01-30T03:00:00:Z","depth":"0","parameterNumber":2,"parameterNumberName":"U-component_of_CURRENTS"},"data":[0,0,0,0,0,0,0,0,0,0,0,0,0,0,0,0,0,0,0,0,0,0,0,0,0,0,0,0,0,0,0,0,0,0,0,0,0,0,0,0,0,0,0,0,0,0,0,0,0,0,0,0,0,0,0,0,0,0,-0.2966,-0.2966,0,-0.2967,-0.2967,-0.2967,-0.2943,-0.2942,-0.2942,-0.2941,-0.2915,-0.2914,-0.2914,0,0,0,0,0,0,0,0,0,0,0,0,0,-0.2935,-0.2935,-0.2966,-0.2966,-0.2966,-0.2967,-0.2967,-0.2967,-0.2943,-0.2942,-0.2942,-0.2941,-0.2915,-0.2914,-0.2914,0,0,0,0,0,0,0,0,0,0,0,0,0,-0.2941,-0.2936,-0.2966,-0.2956,-0.2956,-0.2967,-0.2967,-0.2967,-0.2943,-0.2942,-0.2942,-0.2941,-0.2915,-0.2914,-0.2914,-0.2923,0,0,-0.2912,-0.2912,0,0,0,0,0,0,0,0,-0.2941,-0.2942,-0.2958,-0.2957,-0.2957,-0.2956,-0.2946,-0.2951,-0.2943,-0.2945,-0.2941,-0.2941,-0.2928,-0.2926,-0.2925,-0.2921,-0.292,-0.2912,-0.2912,-0.2912,-0.2911,0,0,0,0,0,0,0,-0.294,-0.2942,-0.2964,-0.2958,-0.2957,-0.295,-0.295,-0.2947,-0.2937,-0.2945,-0.2944,-0.2948,-0.2927,-0.2925,-0.2924,-0.292,-0.2912,-0.2912,-0.2911,-0.2911,-0.2911,-0.2912,0,0,0,0,0,0,-0.2947,-0.2941,-0.2964,-0.2964,-0.295,-0.2951,-0.2951,-0.2955,-0.2938,-0.2936,-0.2949,-0.2947,-0.2926,-0.2924,-0.2923,-0.2934,-0.2912,-0.2911,-0.2911,-0.2911,-0.2911,-0.2912,0,0,0,0,0,0,-0.2946,-0.2949,-0.2964,-0.2955,-0.2956,-0.2953,-0.2957,-0.2955,-0.2952,-0.2942,-0.2938,-0.2947,-0.2926,-0.2923,-0.2922,-0.2933,-0.2911,-0.291,-0.2911,-0.2911,-0.2912,-0.2956,0,0,0,0,0,0,-0.2945,-0.2948,-0.2948,-0.2955,-0.2957,-0.2976,-0.2958,-0.2956,-0.2957,-0.2955,-0.294,-0.2937,-0.2925,-0.2923,-0.2921,-0.2932,-0.291,-0.291,-0.2911,-0.2911,-0.2955,-0.2958,-0.2962,0,0,0,0,0,-0.2944,-0.295,-0.2948,-0.295,-0.2958,-0.2977,-0.2978,-0.2971,-0.2958,-0.2963,-0.295,-0.2937,-0.2925,-0.2923,-0.2921,-0.2932,-0.291,-0.2911,-0.2911,-0.2953,-0.2958,-0.2962,0,0,0,0,0,0,-0.2934,-0.2949,-0.2946,-0.2955,-0.2968,-0.2974,-0.2975,-0.2973,-0.2967,-0.2959,-0.2944,-0.2941,-0.2945,-0.2931,-0.2928,-0.2932,-0.2914,-0.2915,-0.2947,-0.2951,-0.2954,-0.2956,-0.291,0,0,0,0,0,-0.2934,-0.2938,-0.2956,-0.296,-0.2969,-0.2971,-0.2975,-0.2976,-0.2975,-0.2971,-0.2962,-0.2949,-0.2947,-0.2943,-0.2938,-0.2941,-0.2917,-0.2945,-0.2948,-0.2951,-0.2951,-0.2929,-0.293,-0.2914,-0.2914,-0.2914,0,0,-0.2928,-0.2937,-0.2938,-0.2958,-0.2962,-0.2982,-0.2971,-0.2982,-0.2994,-0.297,-0.2974,-0.2965,-0.2952,-0.2957,-0.2956,-0.2945,-0.2942,-0.2952,-0.2955,-0.2953,-0.293,-0.2931,-0.2933,-0.2914,-0.2914,-0.2914,0,0,-0.2927,-0.2931,-0.2938,-0.2957,-0.2974,-0.2984,-0.299,-0.3003,-0.3002,-0.3012,-0.2997,-0.2992,-0.2987,-0.2981,-0.2976,-0.2995,-0.2965,-0.2994,-0.3011,-0.299,-0.2991,-0.2992,-0.2959,-0.2956,-0.2992,-0.2992,-0.2992,0,-0.292,-0.2932,-0.2943,-0.2964,-0.2977,-0.2988,-0.3007,-0.3017,-0.3026,-0.3025,-0.3017,-0.3007,-0.2999,-0.3001,-0.301,-0.3004,-0.2982,-0.2998,-0.2995,-0.2995,-0.2995,-0.2961,-0.2957,-0.2994,-0.2994,-0.2994,-0.2994,0,-0.2928,-0.2943,-0.2951,-0.2979,-0.2999,-0.3015,-0.3042,-0.3054,-0.3053,-0.3057,-0.3059,-0.3047,-0.3035,-0.3038,-0.3032,-0.3032,-0.3013,-0.3006,-0.2985,-0.2999,-0.2962,-0.2958,-0.2998,-0.2997,-0.2996,-0.2995,0,0,-0.2888,-0.2946,-0.2945,-0.2964,-0.3007,-0.3023,-0.3054,-0.3078,-0.3087,-0.3091,-0.3092,-0.3094,-0.3078,-0.3072,-0.3061,-0.3048,-0.3033,-0.3031,-0.3028,-0.3,-0.2976,-0.2881,-0.2867,-0.3027,-0.3026,-0.3026,-0.2949,0,-0.2884,-0.2923,-0.2955,-0.2989,-0.3011,-0.3045,-0.3073,-0.3097,-0.3108,-0.3116,-0.3105,-0.3104,-0.3094,-0.3087,-0.3075,-0.3051,-0.3024,-0.3053,-0.2964,-0.2961,-0.2878,-0.286,-0.2751,-0.2666,-0.2944,-0.2944,-0.2943,0,-0.2868,-0.29,-0.2935,-0.2994,-0.3006,-0.303,-0.3067,-0.3097,-0.3122,-0.313,-0.3127,-0.3121,-0.3111,-0.3095,-0.3048,-0.3068,-0.3022,-0.2996,-0.2992,-0.2884,-0.2858,-0.2697,-0.2647,-0.2621,-0.2936,-0.2936,-0.2937,0,-0.2811,-0.2878,-0.2901,-0.2923,-0.2996,-0.3012,-0.3046,-0.3086,-0.3109,-0.3131,-0.3141,-0.3128,-0.3119,-0.3074,-0.3022,-0.3036,-0.2956,-0.2963,-0.2827,-0.282,-0.2698,-0.268,-0.2611,-0.2908,-0.2908,-0.2908,-0.2909,0,-0.2781,-0.2796,-0.2877,-0.2887,-0.2915,-0.2979,-0.3003,-0.3041,-0.3088,-0.3111,-0.3134,-0.3133,-0.3115,-0.3072,-0.3018,-0.2899,-0.2943,-0.2817,-0.2789,-0.2709,-0.2694,-0.2641,-0.2668,-0.2906,-0.2906,-0.2907,-0.2907,0,-0.2698,-0.2756,-0.2785,-0.2863,-0.2885,-0.2898,-0.2977,-0.3012,-0.3058,-0.3089,-0.3097,-0.313,-0.3071,-0.3023,-0.2947,-0.2881,-0.2726,-0.2727,-0.2627,-0.2588,-0.2431,-0.2465,-0.2362,-0.2294,-0.2565,-0.2562,-0.256,0,-0.2652,-0.266,-0.2741,-0.278,-0.2812,-0.2854,-0.2901,-0.2972,-0.3017,-0.3075,-0.3089,-0.3059,-0.2993,-0.2843,-0.2731,-0.2587,-0.2596,-0.242,-0.2421,-0.239,-0.2409,-0.2442,-0.2397,-0.228,-0.2275,-0.2271,-0.2268,0,-0.2555,-0.2586,-0.2619,-0.2725,-0.2779,-0.2825,-0.2893,-0.2906,-0.2997,-0.2991,-0.2976,-0.2916,-0.2794,-0.2597,-0.2441,-0.2352,-0.236,-0.2338,-0.2333,-0.2193,-0.2197,-0.2128,-0.2371,-0.2235,-0.2239,-0.2241,-0.2243,-0.2244,-0.2472,-0.2494,-0.2583,-0.2653,-0.2726,-0.2783,-0.2669,-0.2796,-0.2783,-0.2702,-0.2814,-0.265,-0.2518,-0.2264,-0.2172,-0.2006,-0.209,-0.195,-0.1997,-0.2036,-0.1956,-0.2115,-0.1934,-0.1936,-0.1937,-0.1938,-0.1939,0,-0.2464,-0.2477,-0.2531,-0.2588,-0.2562,-0.2645,-0.2637,-0.2454,-0.2327,-0.2423,-0.2335,-0.227,-0.2074,-0.1969,-0.1812,-0.1707,-0.168,-0.1676,-0.1715,-0.1685,-0.183,-0.1802,-0.155,-0.155,-0.155,-0.155,-0.155,-0.155,-0.2464,-0.2518,-0.2538,-0.2414,-0.2375,-0.2179,-0.2051,-0.189,-0.1818,-0.1695,-0.1691,-0.1685,-0.177,-0.1849,-0.1684,-0.1589,-0.1561,-0.1503,-0.1541,-0.1676,-0.1707,-0.1736,-0.1714,-0.1448,-0.1448,-0.1329,-0.1329,-0.1328]},{"header":{"parameterUnit":"m.s-1","parameterCategory":2,"la1":30.2991,"la2":30.254,"lo1":-89.0895,"lo2":-89.0444,"dy":0.0017,"dx":0.0017,"nx":28,"ny":28,"refTime":"2026-01-30T03:00:00:Z","depth":"0","parameterNumber":3,"parameterNumberName":"V-component_of_CURRENTS"},"data":[0,0,0,0,0,0,0,0,0,0,0,0,0,0,0,0,0,0,0,0,0,0,0,0,0,0,0,0,0,0,0,0,0,0,0,0,0,0,0,0,0,0,0,0,0,0,0,0,0,0,0,0,0,0,0,0,0,0,-0.0439,-0.0438,0,-0.038,-0.0379,-0.0379,-0.0336,-0.0336,-0.0335,-0.0335,-0.0231,-0.0228,-0.0226,0,0,0,0,0,0,0,0,0,0,0,0,0,-0.0476,-0.0475,-0.0439,-0.0438,-0.0438,-0.038,-0.0379,-0.0378,-0.0336,-0.0336,-0.0335,-0.0335,-0.0231,-0.0228,-0.0225,0,0,0,0,0,0,0,0,0,0,0,0,0,-0.0442,-0.0475,-0.0439,-0.041,-0.0407,-0.038,-0.0379,-0.0378,-0.0336,-0.0336,-0.0335,-0.0335,-0.0232,-0.0229,-0.0225,-0.021,0,0,-0.0213,-0.0212,0,0,0,0,0,0,0,0,-0.0444,-0.0441,-0.0415,-0.0412,-0.0408,-0.0366,-0.0354,-0.032,-0.0336,-0.0362,-0.0335,-0.0335,-0.0272,-0.0265,-0.0255,-0.0205,-0.0201,-0.0213,-0.0211,-0.0209,-0.0208,0,0,0,0,0,0,0,-0.0446,-0.0443,-0.0415,-0.0414,-0.041,-0.0387,-0.0382,-0.0347,-0.0319,-0.036,-0.0357,-0.0352,-0.027,-0.0258,-0.0252,-0.0199,-0.0213,-0.021,-0.0207,-0.0206,-0.0113,-0.0113,0,0,0,0,0,0,-0.0458,-0.0445,-0.0417,-0.0413,-0.0426,-0.0387,-0.0381,-0.0379,-0.032,-0.0311,-0.0352,-0.035,-0.0265,-0.0256,-0.0248,-0.0224,-0.0209,-0.0206,-0.0203,-0.0113,-0.0113,-0.0113,0,0,0,0,0,0,-0.0459,-0.0456,-0.0419,-0.0428,-0.0422,-0.0387,-0.0385,-0.0378,-0.0367,-0.0315,-0.0305,-0.0348,-0.0264,-0.0253,-0.022,-0.022,-0.0204,-0.02,-0.0114,-0.0113,-0.0113,-0.0178,0,0,0,0,0,0,-0.046,-0.0457,-0.0461,-0.0429,-0.0422,-0.0411,-0.0385,-0.0377,-0.0365,-0.0361,-0.0308,-0.0298,-0.0263,-0.0226,-0.0216,-0.0214,-0.0198,-0.0114,-0.0113,-0.0113,-0.0176,-0.018,-0.0183,0,0,0,0,0,-0.0462,-0.0472,-0.0461,-0.0458,-0.0428,-0.0411,-0.0406,-0.0378,-0.0365,-0.0366,-0.0327,-0.0299,-0.0216,-0.0223,-0.0212,-0.0208,-0.0114,-0.0114,-0.0113,-0.0174,-0.0179,-0.0183,0,0,0,0,0,0,-0.0489,-0.0468,-0.0455,-0.0458,-0.0439,-0.0405,-0.0403,-0.0384,-0.0354,-0.035,-0.03,-0.0287,-0.0258,-0.0223,-0.0232,-0.0179,-0.0159,-0.0156,-0.0209,-0.0213,-0.0217,-0.0231,-0.0194,0,0,0,0,0,-0.0498,-0.05,-0.0473,-0.0475,-0.0469,-0.0436,-0.0427,-0.0409,-0.0379,-0.0366,-0.0328,-0.0284,-0.0247,-0.0224,-0.0188,-0.016,-0.0115,-0.0149,-0.0152,-0.0156,-0.0158,-0.0098,-0.0097,-0.0111,-0.0111,-0.0111,0,0,-0.0508,-0.0498,-0.0497,-0.0481,-0.0463,-0.0466,-0.0429,-0.0421,-0.0418,-0.0359,-0.0342,-0.0299,-0.0243,-0.0214,-0.0197,-0.0185,-0.0124,-0.0155,-0.0159,-0.0159,-0.0098,-0.0096,-0.0095,-0.0111,-0.0111,-0.0111,0,0,-0.054,-0.0521,-0.0538,-0.0528,-0.0511,-0.0489,-0.049,-0.0459,-0.044,-0.0419,-0.0373,-0.0331,-0.0279,-0.0235,-0.0207,-0.0206,-0.0149,-0.0193,-0.0218,-0.016,-0.0159,-0.0157,-0.0087,-0.0079,-0.0191,-0.0191,-0.0191,0,-0.0555,-0.0572,-0.054,-0.0556,-0.0552,-0.0505,-0.0523,-0.0497,-0.0458,-0.0438,-0.0423,-0.0332,-0.0288,-0.0239,-0.0239,-0.0215,-0.017,-0.021,-0.0166,-0.0163,-0.016,-0.0089,-0.0079,-0.0194,-0.0194,-0.0194,-0.0193,0,-0.0603,-0.0614,-0.0622,-0.0626,-0.0615,-0.0621,-0.0585,-0.0567,-0.0536,-0.0501,-0.0449,-0.0383,-0.0328,-0.0303,-0.0272,-0.0226,-0.0196,-0.0183,-0.016,-0.0163,-0.0087,-0.0075,-0.0199,-0.0198,-0.0197,-0.0196,0,0,-0.0642,-0.0656,-0.0659,-0.0674,-0.0654,-0.0652,-0.0641,-0.0612,-0.0596,-0.0543,-0.0512,-0.0441,-0.0394,-0.0359,-0.0304,-0.0248,-0.0185,-0.0213,-0.0208,-0.0152,-0.0045,0.0015,0.0034,-0.0167,-0.0166,-0.0165,0.0003,0,-0.0691,-0.0744,-0.0727,-0.0763,-0.0785,-0.0737,-0.0729,-0.0691,-0.064,-0.0595,-0.0509,-0.0459,-0.0418,-0.0386,-0.0327,-0.022,-0.0158,-0.023,-0.0043,-0.0037,0.0009,0.0048,0.0082,0.0237,0.0015,0.0017,0.0018,0,-0.0746,-0.0774,-0.0827,-0.0836,-0.0838,-0.0844,-0.0811,-0.0795,-0.0712,-0.067,-0.0598,-0.0525,-0.0431,-0.04,-0.0222,-0.0271,-0.0169,-0.0083,-0.0074,0.001,0.0044,0.0204,0.0268,0.0411,0.0037,0.0035,0.0034,0,-0.0803,-0.0839,-0.0885,-0.0891,-0.0892,-0.0895,-0.0882,-0.0819,-0.0796,-0.0709,-0.0672,-0.0556,-0.0479,-0.0355,-0.0175,-0.02,0.0034,0.0023,0.0178,0.0184,0.0267,0.0277,0.0484,0.0147,0.0146,0.0146,0.0145,0,-0.0867,-0.0901,-0.0917,-0.0945,-0.0982,-0.0953,-0.096,-0.0925,-0.0858,-0.0808,-0.0716,-0.0638,-0.0464,-0.0307,-0.0173,0.0057,0.0041,0.019,0.0235,0.0247,0.0253,0.0423,0.0471,0.0152,0.0151,0.015,0.0149,0,-0.0927,-0.094,-0.0993,-0.1011,-0.1017,-0.1041,-0.1024,-0.1014,-0.0946,-0.0874,-0.0847,-0.068,-0.0466,-0.0275,-0.0031,0.0082,0.0382,0.036,0.0371,0.0414,0.0659,0.07,0.0959,0.1048,0.0544,0.0547,0.0549,0,-0.0964,-0.1002,-0.105,-0.1079,-0.1091,-0.1114,-0.1122,-0.107,-0.1034,-0.0881,-0.0837,-0.0627,-0.0443,-0.007,0.0168,0.0435,0.0532,0.0614,0.0565,0.07,0.0779,0.0805,0.0862,0.0659,0.0662,0.0664,0.0666,0,-0.1028,-0.1044,-0.1088,-0.1133,-0.1162,-0.116,-0.1148,-0.1121,-0.1016,-0.0921,-0.0726,-0.0572,-0.0255,0.0075,0.0402,0.0552,0.0724,0.0669,0.0812,0.0896,0.0937,0.1035,0.0526,0.0687,0.0685,0.0683,0.0682,0.0681,-0.1061,-0.1106,-0.1137,-0.1142,-0.116,-0.1085,-0.1004,-0.0952,-0.0811,-0.0528,-0.0564,-0.0234,-0.0008,0.0461,0.063,0.0975,0.0927,0.1066,0.1111,0.1129,0.1202,0.0744,0.0945,0.0944,0.0944,0.0943,0.0943,0,-0.1038,-0.1074,-0.1125,-0.1067,-0.0971,-0.1005,-0.0908,-0.0752,-0.0477,-0.032,-0.0103,0.0226,0.0568,0.0822,0.1197,0.1394,0.1423,0.1494,0.1536,0.1576,0.1187,0.1176,0.1432,0.1432,0.1432,0.1432,0.1432,0.1431,-0.1037,-0.1036,-0.1018,-0.0812,-0.0756,-0.0551,-0.043,-0.024,-0.0075,0.0316,0.0585,0.0688,0.09,0.1387,0.1746,0.1785,0.1951,0.1952,0.2039,0.1756,0.1718,0.1682,0.1685,0.2044,0.2045,0.2411,0.2414,0.2417]}],[{"header":{"parameterUnit":"m.s-1","parameterCategory":2,"la1":30.2991,"la2":30.254,"lo1":-89.0895,"lo2":-89.0444,"dy":0.0017,"dx":0.0017,"nx":28,"ny":28,"refTime":"2026-01-30T03:00:00:Z","depth":"2","parameterNumber":2,"parameterNumberName":"U-component_of_CURRENTS"},"data":[0,0,0,0,0,0,0,0,0,0,0,0,0,0,0,0,0,0,0,0,0,0,0,0,0,0,0,0,0,0,0,0,0,0,0,0,0,0,0,0,0,0,0,0,0,0,0,0,0,0,0,0,0,0,0,0,0,0,-0.2569,-0.2569,0,-0.2584,-0.2584,-0.2584,-0.257,-0.257,-0.2569,-0.2569,-0.2556,-0.2557,-0.2557,0,0,0,0,0,0,0,0,0,0,0,0,0,-0.2528,-0.2529,-0.2569,-0.2569,-0.257,-0.2584,-0.2584,-0.2584,-0.257,-0.257,-0.2569,-0.2569,-0.2556,-0.2557,-0.2557,0,0,0,0,0,0,0,0,0,0,0,0,0,-0.2543,-0.2529,-0.2569,-0.2566,-0.2566,-0.2584,-0.2584,-0.2584,-0.257,-0.257,-0.2569,-0.2569,-0.2556,-0.2557,-0.2557,-0.2569,0,0,-0.2557,-0.2557,0,0,0,0,0,0,0,0,-0.2542,-0.2544,-0.2566,-0.2566,-0.2566,-0.2576,-0.2566,-0.2578,-0.257,-0.2566,-0.2569,-0.2568,-0.2562,-0.2562,-0.2564,-0.2568,-0.2568,-0.2557,-0.2557,-0.2557,-0.2557,0,0,0,0,0,0,0,-0.2541,-0.2544,-0.2573,-0.2566,-0.2567,-0.2564,-0.2565,-0.2568,-0.2565,-0.2567,-0.2566,-0.2571,-0.2562,-0.2564,-0.2563,-0.2567,-0.2557,-0.2557,-0.2557,-0.2557,-0.2579,-0.258,0,0,0,0,0,0,-0.2544,-0.2543,-0.2573,-0.2574,-0.2555,-0.2565,-0.2567,-0.2572,-0.2566,-0.2565,-0.2572,-0.2571,-0.2564,-0.2563,-0.2563,-0.2585,-0.2557,-0.2557,-0.2557,-0.2579,-0.2579,-0.258,0,0,0,0,0,0,-0.2543,-0.2547,-0.2572,-0.256,-0.2563,-0.2567,-0.2573,-0.2573,-0.2577,-0.2571,-0.2569,-0.2577,-0.2563,-0.2563,-0.2569,-0.2584,-0.2557,-0.2557,-0.2578,-0.2579,-0.2579,-0.2624,0,0,0,0,0,0,-0.2542,-0.2546,-0.2549,-0.256,-0.2564,-0.259,-0.2574,-0.2574,-0.2582,-0.258,-0.2574,-0.2572,-0.2563,-0.2569,-0.2569,-0.2583,-0.2557,-0.2577,-0.2578,-0.2579,-0.2622,-0.2626,-0.263,0,0,0,0,0,-0.254,-0.255,-0.2549,-0.2552,-0.2568,-0.2591,-0.2593,-0.2592,-0.2583,-0.2592,-0.2584,-0.2573,-0.2576,-0.257,-0.257,-0.2584,-0.2577,-0.2578,-0.2579,-0.262,-0.2625,-0.263,0,0,0,0,0,0,-0.2533,-0.255,-0.2549,-0.2562,-0.2579,-0.259,-0.2596,-0.2597,-0.2599,-0.2594,-0.2583,-0.2581,-0.2593,-0.2582,-0.2576,-0.2593,-0.2573,-0.2575,-0.2604,-0.2609,-0.2613,-0.2613,-0.2557,0,0,0,0,0,-0.2533,-0.2542,-0.2562,-0.2571,-0.2581,-0.2589,-0.2597,-0.26,-0.2605,-0.2605,-0.2602,-0.2596,-0.2598,-0.2598,-0.2598,-0.2609,-0.2587,-0.2617,-0.2621,-0.2625,-0.2624,-0.2608,-0.2611,-0.2584,-0.2584,-0.2584,0,0,-0.2532,-0.2542,-0.2546,-0.257,-0.2578,-0.2601,-0.2592,-0.261,-0.2625,-0.2604,-0.2618,-0.2614,-0.2605,-0.2617,-0.2621,-0.261,-0.262,-0.2626,-0.263,-0.2627,-0.261,-0.2613,-0.2615,-0.2585,-0.2585,-0.2585,0,0,-0.2537,-0.2544,-0.2556,-0.2575,-0.2598,-0.2609,-0.2617,-0.2636,-0.264,-0.2658,-0.2644,-0.2647,-0.2652,-0.2648,-0.2646,-0.2672,-0.2644,-0.2674,-0.2694,-0.2679,-0.2681,-0.2682,-0.2654,-0.2652,-0.2674,-0.2674,-0.2674,0,-0.2533,-0.255,-0.2564,-0.2586,-0.2601,-0.2615,-0.2637,-0.2651,-0.2668,-0.2672,-0.2667,-0.2671,-0.2666,-0.2675,-0.2685,-0.2682,-0.2663,-0.2678,-0.2684,-0.2685,-0.2686,-0.2656,-0.2654,-0.2676,-0.2676,-0.2676,-0.2676,0,-0.2549,-0.2567,-0.2578,-0.2608,-0.263,-0.2651,-0.2679,-0.2696,-0.2702,-0.271,-0.2722,-0.2716,-0.2714,-0.2718,-0.2712,-0.2719,-0.27,-0.2693,-0.2672,-0.2691,-0.2658,-0.2655,-0.268,-0.2679,-0.2678,-0.2677,0,0,-0.2522,-0.2578,-0.258,-0.2598,-0.2643,-0.266,-0.2695,-0.2723,-0.2737,-0.2751,-0.2761,-0.277,-0.2761,-0.2757,-0.2749,-0.2741,-0.2732,-0.2724,-0.2722,-0.2695,-0.2688,-0.2595,-0.2582,-0.2728,-0.2728,-0.2728,-0.2661,0,-0.2525,-0.2566,-0.2596,-0.2633,-0.2655,-0.2689,-0.2719,-0.2747,-0.2765,-0.2781,-0.2778,-0.2785,-0.2778,-0.2776,-0.277,-0.2747,-0.2727,-0.275,-0.2673,-0.267,-0.2585,-0.2576,-0.24,-0.2319,-0.2658,-0.2657,-0.2657,0,-0.252,-0.2549,-0.2586,-0.2641,-0.2654,-0.268,-0.2721,-0.2753,-0.2787,-0.2799,-0.2808,-0.2807,-0.2807,-0.2793,-0.2756,-0.2771,-0.2732,-0.2707,-0.2704,-0.2598,-0.2571,-0.2355,-0.23,-0.2651,-0.2652,-0.2652,-0.2653,0,-0.2473,-0.2537,-0.2562,-0.2582,-0.265,-0.2669,-0.2704,-0.2748,-0.2771,-0.2806,-0.2818,-0.282,-0.2815,-0.2781,-0.2735,-0.2747,-0.2679,-0.2685,-0.2558,-0.2551,-0.2374,-0.2351,-0.2643,-0.2643,-0.2643,-0.2643,-0.2643,0,-0.2451,-0.2469,-0.2542,-0.2554,-0.2583,-0.2643,-0.2672,-0.2711,-0.276,-0.2771,-0.2817,-0.2811,-0.2813,-0.2778,-0.2734,-0.2626,-0.2672,-0.255,-0.2524,-0.2383,-0.2363,-0.2634,-0.2634,-0.264,-0.2641,-0.2642,-0.2642,0,-0.2383,-0.2436,-0.2466,-0.2538,-0.2559,-0.2576,-0.2648,-0.2665,-0.2731,-0.2748,-0.2758,-0.2801,-0.2752,-0.2729,-0.2666,-0.2607,-0.2526,-0.2472,-0.2301,-0.2255,-0.241,-0.2413,-0.2328,-0.2324,-0.232,-0.2318,-0.2315,0,-0.2347,-0.2356,-0.2431,-0.2442,-0.2471,-0.2514,-0.2535,-0.2625,-0.2647,-0.2717,-0.2708,-0.2704,-0.2641,-0.2532,-0.2439,-0.2325,-0.2415,-0.2106,-0.2094,-0.2392,-0.2376,-0.2385,-0.2392,-0.1877,-0.1872,-0.1867,-0.1863,0,-0.2266,-0.2295,-0.2318,-0.2342,-0.2367,-0.2397,-0.244,-0.2456,-0.2546,-0.256,-0.2542,-0.2502,-0.2426,-0.2227,-0.2117,-0.2036,-0.2115,-0.2006,-0.2345,-0.199,-0.1963,-0.195,-0.1972,-0.1821,-0.1826,-0.1829,-0.1831,-0.1833,-0.2187,-0.2181,-0.2204,-0.2205,-0.2235,-0.2226,-0.219,-0.2248,-0.2241,-0.2208,-0.2294,-0.2164,-0.2144,-0.1861,-0.1752,-0.1681,-0.1829,-0.1748,-0.1764,-0.1785,-0.175,-0.172,-0.1525,-0.1527,-0.1529,-0.1531,-0.1532,0,-0.2058,-0.2055,-0.2058,-0.2042,-0.1991,-0.2064,-0.2069,-0.1999,-0.1917,-0.194,-0.1881,-0.1662,-0.1522,-0.1511,-0.133,-0.1293,-0.1302,-0.1243,-0.1258,-0.1299,-0.1336,-0.1282,-0.093,-0.0928,-0.0926,-0.0925,0,0,-0.1988,-0.1923,-0.1908,-0.1767,-0.1759,-0.1641,-0.1599,-0.1542,-0.1514,-0.1403,-0.1336,-0.141,-0.1444,-0.1176,-0.1124,-0.0994,-0.1136,-0.0944,-0.1426,-0.1484,-0.1518,-0.1625,-0.1586,0,0,0,0,0]},{"header":{"parameterUnit":"m.s-1","parameterCategory":2,"la1":30.2991,"la2":30.254,"lo1":-89.0895,"lo2":-89.0444,"dy":0.0017,"dx":0.0017,"nx":28,"ny":28,"refTime":"2026-01-30T03:00:00:Z","depth":"2","parameterNumber":3,"parameterNumberName":"V-component_of_CURRENTS"},"data":[0,0,0,0,0,0,0,0,0,0,0,0,0,0,0,0,0,0,0,0,0,0,0,0,0,0,0,0,0,0,0,0,0,0,0,0,0,0,0,0,0,0,0,0,0,0,0,0,0,0,0,0,0,0,0,0,0,0,-0.041,-0.041,0,-0.0355,-0.0354,-0.0354,-0.0315,-0.0315,-0.0315,-0.0315,-0.0221,-0.0219,-0.0216,0,0,0,0,0,0,0,0,0,0,0,0,0,-0.0443,-0.0443,-0.041,-0.041,-0.0409,-0.0355,-0.0354,-0.0353,-0.0315,-0.0315,-0.0315,-0.0315,-0.0222,-0.0219,-0.0216,0,0,0,0,0,0,0,0,0,0,0,0,0,-0.0412,-0.0443,-0.041,-0.0384,-0.0381,-0.0355,-0.0354,-0.0353,-0.0316,-0.0315,-0.0315,-0.0315,-0.0223,-0.0219,-0.0216,-0.0202,0,0,-0.0205,-0.0204,0,0,0,0,0,0,0,0,-0.0414,-0.0411,-0.0388,-0.0386,-0.0382,-0.0342,-0.0331,-0.0301,-0.0316,-0.034,-0.0315,-0.0314,-0.0259,-0.0252,-0.0242,-0.0197,-0.0193,-0.0205,-0.0203,-0.0202,-0.0201,0,0,0,0,0,0,0,-0.0416,-0.0412,-0.0388,-0.0388,-0.0384,-0.0361,-0.0357,-0.0325,-0.0301,-0.0338,-0.0335,-0.033,-0.0257,-0.0246,-0.024,-0.0192,-0.0205,-0.0202,-0.02,-0.0199,-0.0115,-0.0115,0,0,0,0,0,0,-0.0426,-0.0415,-0.0389,-0.0386,-0.0398,-0.0361,-0.0356,-0.0355,-0.0302,-0.0294,-0.033,-0.0328,-0.0252,-0.0244,-0.0236,-0.0213,-0.0202,-0.0198,-0.0196,-0.0116,-0.0115,-0.0115,0,0,0,0,0,0,-0.0427,-0.0425,-0.0392,-0.0399,-0.0394,-0.0361,-0.036,-0.0354,-0.0344,-0.0297,-0.0288,-0.0327,-0.0251,-0.0241,-0.0211,-0.0209,-0.0197,-0.0194,-0.0116,-0.0115,-0.0115,-0.0168,0,0,0,0,0,0,-0.0429,-0.0426,-0.043,-0.04,-0.0394,-0.0383,-0.036,-0.0353,-0.0342,-0.0339,-0.029,-0.0281,-0.025,-0.0217,-0.0208,-0.0204,-0.0191,-0.0116,-0.0116,-0.0115,-0.0167,-0.017,-0.0172,0,0,0,0,0,-0.043,-0.0439,-0.043,-0.0427,-0.04,-0.0384,-0.0378,-0.0353,-0.0342,-0.0342,-0.0308,-0.0283,-0.0208,-0.0214,-0.0204,-0.0199,-0.0116,-0.0116,-0.0115,-0.0165,-0.0169,-0.0172,0,0,0,0,0,0,-0.0455,-0.0435,-0.0425,-0.0428,-0.041,-0.0378,-0.0375,-0.0358,-0.0332,-0.0329,-0.0283,-0.0272,-0.0245,-0.0214,-0.0222,-0.0173,-0.0157,-0.0154,-0.0198,-0.0201,-0.0204,-0.0214,-0.0188,0,0,0,0,0,-0.0464,-0.0465,-0.0441,-0.0443,-0.0436,-0.0407,-0.0397,-0.0382,-0.0354,-0.0343,-0.0308,-0.0269,-0.0236,-0.0214,-0.0183,-0.0156,-0.0116,-0.0144,-0.0147,-0.015,-0.0151,-0.0094,-0.0092,-0.0114,-0.0114,-0.0114,0,0,-0.0473,-0.0463,-0.0463,-0.0448,-0.0432,-0.0432,-0.04,-0.0392,-0.0387,-0.0336,-0.0319,-0.0282,-0.0232,-0.0205,-0.0189,-0.0178,-0.0122,-0.015,-0.0152,-0.0151,-0.0093,-0.0091,-0.0089,-0.0114,-0.0114,-0.0114,0,0,-0.0499,-0.0486,-0.0498,-0.0488,-0.0472,-0.0452,-0.0453,-0.0424,-0.0406,-0.0387,-0.0347,-0.0308,-0.0262,-0.022,-0.0194,-0.0192,-0.0144,-0.0183,-0.02,-0.0145,-0.0143,-0.014,-0.0085,-0.0078,-0.0179,-0.0179,-0.0179,0,-0.0514,-0.0526,-0.0499,-0.051,-0.0506,-0.0466,-0.0478,-0.0455,-0.0419,-0.0401,-0.039,-0.0307,-0.0268,-0.0219,-0.0219,-0.0199,-0.0161,-0.0193,-0.0149,-0.0146,-0.0143,-0.0087,-0.0078,-0.0181,-0.0181,-0.0181,-0.0181,0,-0.055,-0.0559,-0.0565,-0.0565,-0.0555,-0.0559,-0.0526,-0.0511,-0.0484,-0.0453,-0.0406,-0.0347,-0.0296,-0.0274,-0.0246,-0.02,-0.0179,-0.0166,-0.0144,-0.0144,-0.0085,-0.0074,-0.0185,-0.0184,-0.0183,-0.0183,0,0,-0.0584,-0.0592,-0.0594,-0.0607,-0.0587,-0.0585,-0.0572,-0.0545,-0.0532,-0.0483,-0.0455,-0.0388,-0.0348,-0.0315,-0.0266,-0.0213,-0.0156,-0.0184,-0.018,-0.0136,-0.0033,-0.0003,0.0012,-0.0137,-0.0136,-0.0134,-0.0001,0,-0.0623,-0.0663,-0.0647,-0.0676,-0.0693,-0.0652,-0.0643,-0.0609,-0.0567,-0.0528,-0.0448,-0.0405,-0.0365,-0.0339,-0.028,-0.019,-0.0131,-0.0193,-0.0034,-0.0029,-0.0007,0.0025,-0.0004,0.0114,0.001,0.0012,0.0013,0,-0.0666,-0.0688,-0.073,-0.0737,-0.0738,-0.0743,-0.0717,-0.0702,-0.0629,-0.0593,-0.0527,-0.0463,-0.0375,-0.0346,-0.0186,-0.023,-0.0138,-0.0064,-0.0056,-0.0003,0.0021,0.0098,0.0138,0.0031,0.003,0.0028,0.0027,0,-0.0716,-0.0743,-0.0781,-0.0785,-0.0785,-0.0788,-0.0778,-0.0724,-0.0706,-0.0629,-0.0603,-0.0491,-0.0429,-0.031,-0.0156,-0.0171,0.0025,0.0025,0.0144,0.0148,0.0169,0.0172,0.0142,0.0142,0.0142,0.0142,0.0141,0,-0.0769,-0.0797,-0.0811,-0.0834,-0.087,-0.0842,-0.0853,-0.0823,-0.0767,-0.0738,-0.0642,-0.0587,-0.0417,-0.0284,-0.0158,0.0033,0.0029,0.0153,0.0189,0.0151,0.015,0.011,0.0104,0.0147,0.0146,0.0145,0.0144,0,-0.0823,-0.0831,-0.0878,-0.0894,-0.0901,-0.0926,-0.0919,-0.0918,-0.0857,-0.0815,-0.0792,-0.0643,-0.0465,-0.0285,-0.0067,0.0038,0.0209,0.0278,0.0224,0.025,0.0293,0.0283,0.0418,0.042,0.0422,0.0424,0.0425,0,-0.0856,-0.0888,-0.0934,-0.0968,-0.0981,-0.1007,-0.1022,-0.0975,-0.0962,-0.0843,-0.0823,-0.0641,-0.05,-0.0171,0.0051,0.0292,0.0287,0.0401,0.0367,0.0303,0.0324,0.0311,0.0299,0.038,0.0381,0.0381,0.0382,0,-0.0917,-0.0933,-0.0974,-0.1052,-0.1087,-0.1121,-0.1129,-0.113,-0.1052,-0.0988,-0.0862,-0.0735,-0.0404,-0.0135,0.0178,0.0311,0.0354,0.0423,0.0391,0.0305,0.0276,0.0293,0.0281,0.0388,0.0388,0.0387,0.0387,0.0387,-0.0956,-0.1007,-0.1066,-0.1137,-0.1184,-0.1228,-0.1247,-0.122,-0.1183,-0.106,-0.091,-0.069,-0.0412,0.0029,0.0255,0.0458,0.0446,0.049,0.0484,0.0479,0.0441,0.0416,0.0548,0.0549,0.0549,0.0549,0.0549,0,-0.1011,-0.1069,-0.1146,-0.1235,-0.1302,-0.1299,-0.1312,-0.129,-0.1238,-0.1078,-0.0919,-0.0584,-0.0271,0.0016,0.0344,0.0536,0.0512,0.0564,0.0492,0.0485,0.0479,0.0438,0.0547,0.0548,0.0548,0.0549,0,0,-0.1041,-0.1136,-0.1184,-0.1319,-0.1373,-0.1417,-0.1416,-0.135,-0.1232,-0.1056,-0.087,-0.0633,-0.0269,-0.0039,0.0214,0.0389,0.0381,0.0404,0.0385,0.0262,0.0254,0.0418,0.0346,0,0,0,0,0]}],[{"header":{"parameterUnit":"m.s-1","parameterCategory":2,"la1":30.2991,"la2":30.254,"lo1":-89.0895,"lo2":-89.0444,"dy":0.0017,"dx":0.0017,"nx":28,"ny":28,"refTime":"2026-01-30T03:00:00:Z","depth":"4","parameterNumber":2,"parameterNumberName":"U-component_of_CURRENTS"},"data":[0,0,0,0,0,0,0,0,0,0,0,0,0,0,0,0,0,0,0,0,0,0,0,0,0,0,0,0,0,0,0,0,0,0,0,0,0,0,0,0,0,0,0,0,0,0,0,0,0,0,0,0,0,0,0,0,0,0,-0.1794,-0.1795,0,-0.1855,-0.1855,-0.1856,-0.19,-0.1901,-0.1901,-0.1902,-0.1964,-0.1965,-0.1966,0,0,0,0,0,0,0,0,0,0,0,0,0,-0.1714,-0.1715,-0.1794,-0.1795,-0.1796,-0.1855,-0.1855,-0.1856,-0.19,-0.1901,-0.1901,-0.1902,-0.1964,-0.1965,-0.1966,0,0,0,0,0,0,0,0,0,0,0,0,0,-0.1758,-0.1716,-0.1794,-0.1826,-0.183,-0.1854,-0.1855,-0.1856,-0.19,-0.1901,-0.1901,-0.1902,-0.1963,-0.1965,-0.1967,-0.1962,0,0,-0.1972,-0.1973,0,0,0,0,0,0,0,0,-0.1755,-0.176,-0.182,-0.1824,-0.1828,-0.1872,-0.185,-0.1892,-0.19,-0.1872,-0.1902,-0.1903,-0.1934,-0.1938,-0.1945,-0.1965,-0.1967,-0.1972,-0.1973,-0.1974,-0.1974,0,0,0,0,0,0,0,-0.1752,-0.1758,-0.1817,-0.1821,-0.1826,-0.1837,-0.1844,-0.1858,-0.1896,-0.1874,-0.1878,-0.1887,-0.1936,-0.1944,-0.1947,-0.1968,-0.1972,-0.1974,-0.1975,-0.1975,-0.206,-0.2061,0,0,0,0,0,0,-0.1747,-0.1755,-0.1815,-0.1818,-0.1795,-0.1838,-0.1845,-0.1856,-0.1896,-0.1904,-0.1886,-0.1889,-0.194,-0.1945,-0.195,-0.2022,-0.1974,-0.1975,-0.1977,-0.2059,-0.206,-0.2062,0,0,0,0,0,0,-0.1745,-0.1752,-0.1812,-0.1789,-0.1798,-0.1838,-0.185,-0.1857,-0.1898,-0.1906,-0.1913,-0.1924,-0.1941,-0.1947,-0.1991,-0.2022,-0.1976,-0.1978,-0.2057,-0.2059,-0.2061,-0.2119,0,0,0,0,0,0,-0.1743,-0.1751,-0.1772,-0.1789,-0.1799,-0.185,-0.1849,-0.1857,-0.1901,-0.1905,-0.194,-0.1944,-0.1942,-0.1989,-0.1993,-0.2024,-0.1979,-0.2056,-0.2058,-0.206,-0.2115,-0.2122,-0.2128,0,0,0,0,0,-0.174,-0.1761,-0.1772,-0.178,-0.1821,-0.1851,-0.1858,-0.1888,-0.1902,-0.1926,-0.195,-0.1945,-0.2006,-0.1992,-0.1996,-0.2028,-0.2055,-0.2058,-0.206,-0.2113,-0.2121,-0.2128,0,0,0,0,0,0,-0.174,-0.1769,-0.1781,-0.1812,-0.1841,-0.186,-0.189,-0.1906,-0.1944,-0.1958,-0.1963,-0.197,-0.2018,-0.2015,-0.1999,-0.2058,-0.2028,-0.2032,-0.2067,-0.2075,-0.2081,-0.2074,-0.1981,0,0,0,0,0,-0.1748,-0.1774,-0.1799,-0.1828,-0.1845,-0.1873,-0.1896,-0.1916,-0.1944,-0.1963,-0.1987,-0.2009,-0.2026,-0.2046,-0.2061,-0.2097,-0.2073,-0.2119,-0.2125,-0.2131,-0.2128,-0.2122,-0.2127,-0.207,-0.207,-0.207,0,0,-0.1758,-0.1776,-0.1793,-0.1831,-0.1856,-0.1887,-0.189,-0.1934,-0.1966,-0.1962,-0.2024,-0.2036,-0.2041,-0.208,-0.2101,-0.2087,-0.2135,-0.2134,-0.2139,-0.2133,-0.2125,-0.213,-0.2135,-0.2072,-0.2072,-0.2072,0,0,-0.1778,-0.1807,-0.1833,-0.186,-0.1904,-0.1921,-0.1941,-0.1981,-0.201,-0.206,-0.2063,-0.2094,-0.2134,-0.2138,-0.2143,-0.2194,-0.2168,-0.2207,-0.2238,-0.2232,-0.2237,-0.224,-0.2215,-0.2215,-0.2211,-0.2211,-0.2211,0,-0.1791,-0.1821,-0.1847,-0.1878,-0.1905,-0.1939,-0.1973,-0.2005,-0.2057,-0.2078,-0.2091,-0.2144,-0.2155,-0.2183,-0.2204,-0.2208,-0.2195,-0.2209,-0.224,-0.2243,-0.2246,-0.2218,-0.2219,-0.2214,-0.2214,-0.2214,-0.2213,0,-0.1818,-0.1857,-0.1877,-0.1924,-0.1958,-0.1996,-0.2036,-0.208,-0.2119,-0.2141,-0.2194,-0.221,-0.2235,-0.2249,-0.2246,-0.2275,-0.2255,-0.2248,-0.2218,-0.2255,-0.2224,-0.2223,-0.2219,-0.2218,-0.2217,-0.2216,0,0,-0.1805,-0.1881,-0.1891,-0.1921,-0.1987,-0.2012,-0.2072,-0.2121,-0.2156,-0.221,-0.2247,-0.2287,-0.2296,-0.2302,-0.2305,-0.2308,-0.2318,-0.2294,-0.2293,-0.2265,-0.2296,-0.2143,-0.2126,-0.2321,-0.2322,-0.2322,-0.2266,0,-0.1819,-0.1878,-0.1915,-0.1979,-0.201,-0.2063,-0.2109,-0.2161,-0.2206,-0.2252,-0.2275,-0.2312,-0.2316,-0.2334,-0.234,-0.2325,-0.2319,-0.2333,-0.2268,-0.2266,-0.2122,-0.2121,-0.2323,-0.2265,-0.2265,-0.2264,-0.2264,0,-0.1821,-0.1862,-0.1925,-0.1999,-0.202,-0.2067,-0.214,-0.2188,-0.2252,-0.2285,-0.2326,-0.2344,-0.2368,-0.2362,-0.235,-0.2362,-0.2334,-0.2316,-0.2313,-0.2146,-0.2109,-0.2222,-0.2262,-0.2262,-0.2262,-0.2262,-0.2262,0,-0.1775,-0.1863,-0.1913,-0.1942,-0.2033,-0.2076,-0.2129,-0.2201,-0.2237,-0.2309,-0.2333,-0.2367,-0.2383,-0.2368,-0.2337,-0.2351,-0.2301,-0.2309,-0.214,-0.2129,-0.226,-0.2257,-0.2286,-0.2287,-0.2287,-0.2287,-0.2287,0,-0.1749,-0.1793,-0.1904,-0.1928,-0.1988,-0.2064,-0.2127,-0.2183,-0.2254,-0.2272,-0.2348,-0.2344,-0.2388,-0.2366,-0.2336,-0.2217,-0.2296,-0.213,-0.2099,-0.2286,-0.2286,-0.2259,-0.2256,-0.2285,-0.2285,-0.2286,-0.2286,0,-0.1678,-0.1756,-0.1818,-0.193,-0.1967,-0.2011,-0.2118,-0.2144,-0.2235,-0.2259,-0.228,-0.2334,-0.2294,-0.2302,-0.2264,-0.2189,-0.211,-0.2048,-0.2231,-0.2215,-0.1944,-0.1945,-0.1851,-0.1845,-0.184,-0.1836,-0.1832,0,-0.1641,-0.1669,-0.1801,-0.1833,-0.1889,-0.197,-0.2006,-0.2117,-0.2134,-0.2213,-0.2193,-0.221,-0.2218,-0.2028,-0.2069,-0.1985,-0.1964,-0.1916,-0.1943,-0.1916,-0.1898,-0.1907,-0.1915,-0.1824,-0.1823,-0.1821,-0.182,0,-0.156,-0.1627,-0.1674,-0.1738,-0.1794,-0.1843,-0.1907,-0.1907,-0.2001,-0.2113,-0.203,-0.199,-0.1941,-0.1901,-0.1849,-0.1796,-0.1946,-0.1863,-0.1874,-0.1899,-0.1883,-0.1871,-0.1885,-0.1802,-0.1805,-0.1807,-0.1808,0,-0.1497,-0.1507,-0.157,-0.1604,-0.1669,-0.1662,-0.1733,-0.1729,-0.176,-0.1857,-0.1818,-0.1833,-0.1899,-0.1799,-0.1746,-0.1685,-0.1667,-0.1616,-0.164,-0.166,-0.1625,-0.1578,-0.136,0,0,0,0,0,-0.1415,-0.1393,-0.142,-0.1439,-0.1495,-0.1522,-0.1621,-0.1692,-0.1796,-0.1681,-0.1743,-0.168,-0.16,-0.1619,-0.1513,-0.1672,-0.1684,-0.1544,-0.1642,-0.1705,-0.1725,-0.1703,0,0,0,0,0,0,-0.1353,-0.1373,-0.1361,-0.1274,-0.1253,-0.1286,-0.134,-0.1429,-0.1382,-0.1502,-0.1464,-0.1559,-0.151,-0.161,-0.1464,-0.1472,-0.1496,-0.1576,-0.1571,-0.1693,-0.1712,-0.1728,-0.1712,0,0,0,0,0]},{"header":{"parameterUnit":"m.s-1","parameterCategory":2,"la1":30.2991,"la2":30.254,"lo1":-89.0895,"lo2":-89.0444,"dy":0.0017,"dx":0.0017,"nx":28,"ny":28,"refTime":"2026-01-30T03:00:00:Z","depth":"4","parameterNumber":3,"parameterNumberName":"V-component_of_CURRENTS"},"data":[0,0,0,0,0,0,0,0,0,0,0,0,0,0,0,0,0,0,0,0,0,0,0,0,0,0,0,0,0,0,0,0,0,0,0,0,0,0,0,0,0,0,0,0,0,0,0,0,0,0,0,0,0,0,0,0,0,0,-0.0304,-0.0303,0,-0.0269,-0.0268,-0.0268,-0.0246,-0.0246,-0.0246,-0.0246,-0.0181,-0.0179,-0.0177,0,0,0,0,0,0,0,0,0,0,0,0,0,-0.0318,-0.0318,-0.0304,-0.0303,-0.0303,-0.0269,-0.0268,-0.0268,-0.0246,-0.0246,-0.0246,-0.0246,-0.0181,-0.0179,-0.0177,0,0,0,0,0,0,0,0,0,0,0,0,0,-0.03,-0.0318,-0.0304,-0.0288,-0.0287,-0.0269,-0.0268,-0.0267,-0.0246,-0.0246,-0.0246,-0.0246,-0.0182,-0.0179,-0.0177,-0.0163,0,0,-0.0169,-0.0168,0,0,0,0,0,0,0,0,-0.0301,-0.0299,-0.0291,-0.0289,-0.0288,-0.0262,-0.0249,-0.0231,-0.0246,-0.0261,-0.0246,-0.0246,-0.0205,-0.0201,-0.0194,-0.016,-0.0157,-0.0169,-0.0167,-0.0166,-0.0166,0,0,0,0,0,0,0,-0.0302,-0.03,-0.0289,-0.0291,-0.0289,-0.0272,-0.0269,-0.0246,-0.0233,-0.026,-0.0258,-0.0255,-0.0204,-0.0197,-0.0193,-0.0156,-0.0169,-0.0167,-0.0165,-0.0164,-0.0105,-0.0105,0,0,0,0,0,0,-0.0309,-0.0302,-0.029,-0.0288,-0.0295,-0.0272,-0.0269,-0.027,-0.0234,-0.0229,-0.0255,-0.0254,-0.0201,-0.0196,-0.019,-0.0176,-0.0166,-0.0164,-0.0163,-0.0105,-0.0105,-0.0105,0,0,0,0,0,0,-0.031,-0.0309,-0.0292,-0.0294,-0.0291,-0.0272,-0.0273,-0.0269,-0.0267,-0.0231,-0.0225,-0.0257,-0.0201,-0.0194,-0.0175,-0.0173,-0.0163,-0.0161,-0.0105,-0.0105,-0.0105,-0.0144,0,0,0,0,0,0,-0.0311,-0.0309,-0.0316,-0.0295,-0.0291,-0.0288,-0.0273,-0.0269,-0.0265,-0.0263,-0.023,-0.0224,-0.02,-0.0179,-0.0172,-0.0169,-0.0159,-0.0105,-0.0105,-0.0105,-0.0142,-0.0145,-0.0147,0,0,0,0,0,-0.0311,-0.032,-0.0317,-0.0315,-0.03,-0.0289,-0.0285,-0.0271,-0.0265,-0.0267,-0.0245,-0.0225,-0.0173,-0.0177,-0.0169,-0.0165,-0.0105,-0.0105,-0.0105,-0.0141,-0.0144,-0.0147,0,0,0,0,0,0,-0.033,-0.0318,-0.0314,-0.0319,-0.0309,-0.0286,-0.0287,-0.0276,-0.026,-0.026,-0.0226,-0.0218,-0.0202,-0.0178,-0.0183,-0.0147,-0.0135,-0.0133,-0.0165,-0.0168,-0.017,-0.0176,-0.0157,0,0,0,0,0,-0.0338,-0.0343,-0.0326,-0.0332,-0.0328,-0.0309,-0.0304,-0.0295,-0.0277,-0.027,-0.0247,-0.0219,-0.0194,-0.0178,-0.0156,-0.0136,-0.0105,-0.0127,-0.013,-0.0132,-0.0131,-0.0082,-0.0079,-0.0104,-0.0104,-0.0104,0,0,-0.0347,-0.0341,-0.0344,-0.0337,-0.0327,-0.0327,-0.0306,-0.0304,-0.0301,-0.0265,-0.0256,-0.023,-0.0193,-0.0173,-0.0162,-0.0152,-0.0109,-0.0132,-0.0134,-0.0131,-0.0081,-0.0079,-0.0076,-0.0104,-0.0104,-0.0104,0,0,-0.0366,-0.0363,-0.0373,-0.0368,-0.0359,-0.0346,-0.0348,-0.0329,-0.0319,-0.0308,-0.0279,-0.0251,-0.022,-0.0185,-0.0165,-0.0164,-0.0128,-0.016,-0.0169,-0.0122,-0.0119,-0.0117,-0.0079,-0.0073,-0.0155,-0.0155,-0.0155,0,-0.0379,-0.039,-0.0374,-0.0382,-0.0382,-0.0358,-0.0367,-0.0352,-0.033,-0.0318,-0.0313,-0.0254,-0.0223,-0.0183,-0.0183,-0.0168,-0.0141,-0.0164,-0.0125,-0.0121,-0.0118,-0.008,-0.0072,-0.0157,-0.0157,-0.0156,-0.0156,0,-0.0403,-0.0414,-0.0419,-0.0422,-0.0418,-0.0423,-0.0401,-0.0395,-0.0381,-0.0359,-0.0326,-0.0281,-0.0243,-0.0226,-0.0205,-0.0164,-0.0153,-0.0139,-0.012,-0.0118,-0.0078,-0.0069,-0.016,-0.0159,-0.0158,-0.0158,0,0,-0.0426,-0.0436,-0.044,-0.0452,-0.0442,-0.0444,-0.0436,-0.042,-0.0415,-0.0381,-0.0363,-0.0309,-0.028,-0.0255,-0.0216,-0.0169,-0.0122,-0.0148,-0.0144,-0.0114,-0.0024,-0.0037,-0.0029,-0.0103,-0.0102,-0.0101,-0.0007,0,-0.0452,-0.0483,-0.0474,-0.05,-0.0514,-0.0491,-0.0488,-0.0468,-0.0442,-0.0418,-0.0355,-0.0327,-0.0291,-0.0274,-0.0221,-0.0153,-0.0101,-0.0149,-0.0027,-0.0023,-0.0038,-0.002,-0.0097,-0.0001,0.0001,0.0003,0.0004,0,-0.0478,-0.0497,-0.0532,-0.0547,-0.055,-0.056,-0.0552,-0.0544,-0.0495,-0.0473,-0.0423,-0.0376,-0.0304,-0.0277,-0.0147,-0.0182,-0.0106,-0.0047,-0.0041,-0.0033,-0.0021,0.0,0.002,0.0018,0.0017,0.0016,0.0015,0,-0.0509,-0.0536,-0.057,-0.0576,-0.0585,-0.0596,-0.0597,-0.0565,-0.0559,-0.0506,-0.0494,-0.0401,-0.0358,-0.0254,-0.0134,-0.014,0.0009,0.0019,0.0085,0.0085,0.0085,0.0082,0.0122,0.0122,0.0121,0.0121,0.0121,0,-0.0538,-0.0566,-0.0594,-0.0614,-0.0655,-0.064,-0.0665,-0.0648,-0.0617,-0.0606,-0.0528,-0.0493,-0.0349,-0.0249,-0.0141,-0.0007,0.0008,0.0088,0.0111,0.0065,0.0059,0.0091,0.0086,0.0125,0.0124,0.0123,0.0123,0,-0.0567,-0.0583,-0.063,-0.0661,-0.0676,-0.0707,-0.0727,-0.0736,-0.0699,-0.0682,-0.0667,-0.0555,-0.0423,-0.0277,-0.0099,-0.0021,0.0111,0.016,0.0096,0.0113,0.0156,0.0149,0.0237,0.0238,0.0238,0.0238,0.0238,0,-0.0583,-0.0612,-0.0677,-0.0717,-0.0739,-0.0781,-0.0808,-0.0786,-0.0785,-0.0716,-0.0705,-0.0578,-0.0489,-0.0248,-0.0098,0.011,0.0141,0.0202,0.0186,0.0156,0.017,0.0162,0.0154,0.0239,0.0239,0.0239,0.0239,0,-0.0617,-0.0646,-0.0688,-0.0778,-0.0828,-0.0875,-0.0903,-0.0903,-0.0861,-0.0828,-0.0722,-0.0588,-0.0434,-0.0247,-0.0083,0.0065,0.0152,0.0206,0.0206,0.0192,0.016,0.0171,0.0163,0.024,0.024,0.024,0.024,0,-0.0644,-0.069,-0.0758,-0.0829,-0.0902,-0.095,-0.0955,-0.0933,-0.0916,-0.0816,-0.0779,-0.0602,-0.0487,-0.0269,-0.0121,0.0022,0.0057,0.0093,0.01,0.0101,0.0029,-0.0035,0.0012,0,0,0,0,0,-0.0668,-0.0727,-0.0804,-0.0888,-0.096,-0.0994,-0.1013,-0.0997,-0.0946,-0.0875,-0.082,-0.0669,-0.0427,-0.0319,-0.0177,-0.0132,0.0063,0.0036,0.0102,0.0247,0.0245,0.0183,0,0,0,0,0,0,-0.0689,-0.0769,-0.0811,-0.092,-0.0979,-0.1051,-0.1059,-0.1021,-0.0964,-0.0887,-0.0753,-0.0654,-0.0418,-0.0511,-0.0181,-0.0137,-0.008,0.016,0.0163,0.0247,0.0246,0.0245,0.018,0,0,0,0,0]}]]